Погода в Улброке

Латвия     56°56′22″N   24°17′17″E
темп.,
°C
ветер,
м/с
пор.,
м/с
влажн.,
%
обл.,
%
осадки,
мм/ч
давл.,
гПа
погр.,
м
31 июля, сб
сб3100:00+16юз71588100 3.1 9991190
03:00+16зюз6129358 4.3 999876
06:00+16юз4109412 0.1 1000486
09:00+20зюз610768 0.3 1001985
12:00+23зюз795418 0.6 10031658
15:00+25зсз584671 0.7 10032078
18:00+24зюз3745100 0.0 10032001
21:00+21ю255899 0.0 1002162
1 августа, вс
вс100:00+17ююз379486 2.4 1003240
03:00+16ююз310955 3.3 1003291
06:00+15ююз310935 0.0 1002295
09:00+19ююз512755 0.0 1002959
12:00+23зюз6105111 0.1 10031761
15:00+25з594165 0.4 10042221
18:00+24зюз4643100 0.0 10042051
21:00+19юз3879100 0.4 1005279
2 августа, пн
пн200:00+16юз258941 0.3 1006166
03:00+16ююз2289100 0.3 100681
06:00+15ю2491100 0.0 1005129
09:00+18ююз2474100 0.0 1004496
12:00+21з2464100 0.4 10031281
15:00+22сз454885 0.6 10031337
18:00+22сз374778 0.2 10031956
21:00+19зсз476243 0.3 1003790
3 августа, вт
вт300:00+15юз38711 0.1 1004382
03:00+14юз39815 0.1 1005279
06:00+13юз26902 0.0 1005203
09:00+18зсз466923 0.1 1006961
12:00+20сз565249 0.6 10081578
15:00+20ссз57535 0.7 10091430
18:00+20ссз46460 0.0 10101567
21:00+17ссз245617 0.0 1012181
4 августа, ср
ср400:00+16з115859 0.0 101352
03:00+13юз237032 0.0 101385
06:00+12ю11735 0.0 101439
09:00+18юв22526 0.0 1014420
12:00+22ююв233880 0.0 10141589
15:00+24юв2334100 0.0 10132396
18:00+22в2546100 0.0 1012811
21:00+18ю3667100 0.1 1012303